Tracking 32138 objects as of 8-Nov-2025
HD Live streaming from Space Station
objects crossing your sky now

ZY 3

Track ZY 3 now!
10-day predictions
ZY 3 is classified as:


NORAD ID: 38046
Int'l Code: 2012-001A
Perigee: 383.6 km
Apogee: 388.2 km
Inclination: 97.2 °
Period: 92.1 minutes
Semi major axis: 6756 km
RCS: 5.391 m2 (large)
Launch date: January 9, 2012
Source: People's Republic of China (PRC)
Launch site: Taiyaun Space Center, China (TSC)
Your satellite tracking list
Your tracking list is empty




NASA's NSSDC Master Catalog

Two Line Element Set (TLE):
1 38046U 12001A   25312.52090883  .00067888  00000-0  74293-3 0  9998
2 38046  97.1809  18.2724 0003364 104.3005 255.8628 15.63077277769610
Source of the keplerian elements: AFSPC